Lincoln Laboratory Near-Earth Asteroid Research project
軌道要素
The following orbital elements are taken from MPC 59875:
Epoch 2006 Mar. 6.0 TT = JDT 2453800.5
T 2006 Mar. 5.8231 TT MPC
q 6.126320 (2000.0) P Q
z +0.000143 Peri. 101.2923 +0.7477392 +0.1103278
+/-0.000047 Node 255.2495 -0.2589579 +0.9564691
e 0.999125 Incl. 42.6156 +0.6114139 +0.2701751
From 95 observations 2006 Dec. 11-2007 Feb. 15, mean residual 0".5.